Location: Ottawa
(45.4170°N, 75.7000°W)
Time: 19:15:40
(UTC-04:00)

Iridium 91 - Visible Passes

Search period start: 05 July 2015 00:00
Search period end: 15 July 2015 00:00
Orbit: 776 x 779 km, 86.4° (Epoch: 05 July)

Date Brightness Start Highest point End Pass type
(mag) Time Alt. Az. Time Alt. Az. Time Alt. Az.
05 Jul 7.9 22:32:42 10° SW 22:36:44 22° WNW 22:40:38 10° NNW visible
06 Jul 7.1 21:58:04 10° SSW 22:02:54 37° W 22:07:42 10° NNW visible
07 Jul 6.0 21:24:02 10° SSW 21:29:12 65° W 21:34:25 10° N visible
08 Jul 8.2 22:33:55 10° WSW 22:37:06 16° WNW 22:40:04 10° NW visible
09 Jul 7.7 21:58:45 10° SW 22:03:10 27° WNW 22:07:30 10° NNW visible
10 Jul 6.7 21:24:23 10° SSW 21:29:24 46° W 21:34:24 10° N visible
11 Jul 8.6 22:36:03 10° W 22:37:32 11° WNW 22:38:42 10° NW visible
12 Jul 8.2 21:59:43 10° WSW 22:03:29 19° WNW 22:07:07 10° NNW visible
13 Jul 7.5 21:24:55 10° SW 21:29:37 33° WNW 21:34:17 10° NNW visible
